Location: Castiglione Fibocchi
(43.5333°N, 11.7667°E)
Time: 10:21:24
(UTC+00:00)

SL-19 R/B - Pass Details

Date: 15 August 2020
Orbit: 795 x 1010 km, 99.4° (Epoch: 18 September)

Event Time Altitude Azimuth Distance (km) Brightness Sun altitude
Rises 00:19:06 0° 15° (NNE) 3,578 8.6 -30.8°
Reaches altitude 10° 00:21:36 10° 17° (NNE) 2,599 7.6 -30.7°
Enters shadow 00:26:49 70° 48° (NE) 927 4.4 -30.4°
